Location: Invercargill
(46.4000°S, 168.3500°E)
Time: 10:31:15
(UTC+13:00)

Tiros 1 despin weight - All Passes

Search period start: 23 October 2019 00:00
Search period end: 02 November 2019 00:00
Orbit: 593 x 643 km, 48.2° (Epoch: 22 October)

Date Brightness Start Highest point End Pass type
(mag) Time Alt. Az. Time Alt. Az. Time Alt. Az.
23 Oct - 13:15:44 10° NNW 13:19:45 32° NE 13:23:46 10° E daylight
23 Oct - 14:56:32 10° WNW 15:01:03 89° S 15:05:32 10° ESE daylight
23 Oct - 16:38:18 10° W 16:42:47 70° S 16:47:15 10° E daylight
23 Oct - 18:19:57 10° WSW 18:24:23 65° NNW 18:28:50 10° ENE daylight
23 Oct - 20:02:16 10° W 20:05:22 19° NW 20:08:28 10° N daylight
24 Oct - 11:53:02 10° NNE 11:55:20 14° NE 11:57:37 10° ENE daylight
24 Oct - 13:31:48 10° NW 13:36:10 52° NNE 13:40:32 10° ESE daylight
24 Oct - 15:13:11 10° W 15:17:42 74° S 15:22:10 10° ESE daylight
24 Oct - 16:54:57 10° WSW 16:59:27 80° SSE 17:03:56 10° E daylight
24 Oct - 18:36:38 10° W 18:40:51 42° NNW 18:45:04 10° NE daylight
25 Oct - 12:07:55 10° NNW 12:11:33 24° NE 12:15:12 10° E daylight
25 Oct - 13:48:11 10° WNW 13:52:42 77° NNE 13:57:11 10° ESE daylight
25 Oct - 15:29:53 10° W 15:34:22 69° S 15:38:51 10° E daylight
25 Oct - 17:11:34 10° WSW 17:16:04 80° NNW 17:20:32 10° ENE daylight
25 Oct - 18:53:32 10° W 18:57:13 25° NW 19:00:53 10° NNE daylight
26 Oct - 12:23:40 10° NW 12:27:54 40° NNE 12:32:07 10° E daylight
26 Oct - 14:04:46 10° W 14:09:18 82° SSW 14:13:48 10° ESE daylight
26 Oct - 15:46:33 10° WSW 15:51:04 73° S 15:55:32 10° E daylight
26 Oct - 17:28:13 10° WSW 17:32:36 54° NNW 17:36:57 10° NE daylight
26 Oct - 19:11:01 10° WNW 19:13:26 14° NW 19:15:51 10° N daylight
27 Oct - 11:00:20 10° N 11:03:23 18° NE 11:06:27 10° E daylight
27 Oct - 12:39:53 10° NW 12:44:22 63° NNE 12:48:49 10° ESE daylight
27 Oct - 14:21:27 10° W 14:25:58 71° S 14:30:26 10° E daylight
27 Oct - 16:03:12 10° WSW 16:07:42 87° S 16:12:11 10° ENE daylight
27 Oct - 17:44:58 10° W 17:49:01 34° NNW 17:53:02 10° NNE daylight
28 Oct - 11:15:41 10° NNW 11:19:40 30° NE 11:23:38 10° E daylight
28 Oct - 12:56:23 10° WNW 13:00:55 87° NNE 13:05:26 10° ESE daylight
28 Oct - 14:38:08 10° W 14:42:39 70° S 14:47:08 10° E daylight
28 Oct - 16:19:49 10° WSW 16:24:17 69° NNW 16:28:43 10° ENE daylight
28 Oct - 18:02:02 10° W 18:05:18 20° NW 18:08:34 10° N daylight
29 Oct - 09:53:15 10° NNE 09:55:16 13° NE 09:57:15 10° ENE daylight
29 Oct - 11:31:40 10° NW 11:36:04 49° NNE 11:40:26 10° ESE daylight
29 Oct - 13:13:00 10° W 13:17:33 76° S 13:22:04 10° ESE daylight
29 Oct - 14:54:48 10° WSW 14:59:20 78° S 15:03:48 10° E daylight
29 Oct - 16:36:30 10° WSW 16:40:46 45° NNW 16:45:01 10° NE daylight
29 Oct - 18:20:20 10° WNW 18:21:29 11° NW 18:22:37 10° NNW daylight
30 Oct - 10:07:53 10° NNW 10:11:28 23° NE 10:15:01 10° E daylight
30 Oct - 11:48:01 10° WNW 11:52:33 73° NNE 11:57:05 10° ESE daylight
30 Oct - 13:29:42 10° W 13:34:14 69° S 13:38:43 10° E daylight
30 Oct - 15:11:25 10° WSW 15:15:57 83° NNW 15:20:25 10° ENE daylight
30 Oct - 16:53:20 10° W 16:57:08 27° NW 17:00:54 10° NNE daylight
31 Oct - 10:23:34 10° NW 10:27:47 37° NNE 10:31:59 10° E daylight
31 Oct - 12:04:34 10° WNW 12:09:09 84° SSW 12:13:41 10° ESE daylight
31 Oct - 13:46:23 10° W 13:50:55 72° S 13:55:24 10° E daylight
31 Oct - 15:28:03 10° WSW 15:32:29 58° NNW 15:36:52 10° NE daylight
31 Oct - 17:10:40 10° W 17:13:22 16° NW 17:16:04 10° N daylight
01 Nov - 09:00:23 10° N 09:03:18 17° NE 09:06:11 10° E daylight
01 Nov - 10:39:43 10° NW 10:44:14 59° NNE 10:48:42 10° ESE daylight
01 Nov - 12:21:15 10° W 12:25:49 72° S 12:30:19 10° E daylight
01 Nov - 14:03:01 10° WSW 14:07:34 85° SSE 14:12:04 10° ENE daylight
01 Nov - 15:44:47 10° W 15:48:55 37° NNW 15:53:00 10° NE daylight
